Time,TemperatureF,DewpointF,PressureIn,WindDirection,WindDirectionDegrees,WindSpeedMPH,WindSpeedGustMPH,Humidity,HourlyPrecipIn,Conditions,Clouds,dailyrainin,SoftwareType,DateUTC
2013-05-08 00:22:00,52.0,49.0,30.05,SE,146,0.0,0.0,88,0.00,,,0.00,,2013-05-08 07:22:00,
2013-05-08 00:32:00,52.0,49.0,30.05,SE,146,0.0,0.0,88,0.00,,,0.00,,2013-05-08 07:32:00,
2013-05-08 00:42:00,52.0,49.0,30.05,SE,146,0.0,0.0,88,0.00,,,0.00,,2013-05-08 07:42:00,
2013-05-08 00:52:00,52.0,49.0,30.05,SE,146,0.0,0.0,88,0.00,,,0.00,,2013-05-08 07:52:00,
2013-05-08 01:01:00,52.0,49.0,30.05,SE,146,0.0,0.0,88,0.00,,,0.00,,2013-05-08 08:01:00,
2013-05-08 02:22:00,50.0,48.0,30.05,SE,146,0.0,0.0,92,0.00,,,0.00,,2013-05-08 09:22:00,
2013-05-08 02:32:00,50.0,48.0,30.05,SE,146,0.0,0.0,92,0.00,,,0.00,,2013-05-08 09:32:00,
2013-05-08 02:42:00,50.0,48.0,30.05,SE,146,0.0,0.0,92,0.00,,,0.00,,2013-05-08 09:42:00,
2013-05-08 02:53:00,50.0,48.0,30.05,SE,146,0.0,0.0,92,0.00,,,0.00,,2013-05-08 09:53:00,
2013-05-08 03:02:00,50.0,48.0,30.05,SE,146,0.0,0.0,92,0.00,,,0.00,,2013-05-08 10:02:00,
2013-05-08 04:22:00,50.0,48.0,30.06,SSE,147,0.0,0.0,93,0.00,,,0.00,,2013-05-08 11:22:00,
2013-05-08 04:32:00,50.0,48.0,30.06,SSE,147,0.0,0.0,93,0.00,,,0.00,,2013-05-08 11:32:00,
2013-05-08 04:42:00,50.0,48.0,30.06,SSE,147,0.0,0.0,93,0.00,,,0.00,,2013-05-08 11:42:00,
2013-05-08 04:52:00,50.0,48.0,30.06,SSE,147,0.0,0.0,93,0.00,,,0.00,,2013-05-08 11:52:00,
2013-05-08 05:01:00,50.0,48.0,30.06,SSE,147,0.0,0.0,93,0.00,,,0.00,,2013-05-08 12:01:00,
2013-05-08 06:21:00,50.0,48.0,30.07,SSE,147,0.0,0.0,94,0.00,,,0.00,,2013-05-08 13:21:00,
2013-05-08 06:32:00,50.0,48.0,30.07,SSE,147,0.0,0.0,94,0.00,,,0.00,,2013-05-08 13:32:00,
2013-05-08 06:42:00,50.0,48.0,30.07,SSE,147,0.0,0.0,94,0.00,,,0.00,,2013-05-08 13:42:00,
2013-05-08 06:52:00,50.0,48.0,30.07,SSE,147,0.0,0.0,94,0.00,,,0.00,,2013-05-08 13:52:00,
2013-05-08 07:01:00,50.0,48.0,30.07,SSE,147,0.0,0.0,94,0.00,,,0.00,,2013-05-08 14:01:00,
2013-05-08 08:22:00,50.0,49.0,30.10,SSE,147,0.0,0.0,95,0.00,,,0.00,,2013-05-08 15:22:00,
2013-05-08 08:33:00,50.0,49.0,30.10,SSE,147,0.0,0.0,95,0.00,,,0.00,,2013-05-08 15:33:00,
2013-05-08 08:42:00,50.0,49.0,30.10,SSE,147,0.0,0.0,95,0.00,,,0.00,,2013-05-08 15:42:00,
2013-05-08 08:52:00,50.0,49.0,30.10,SSE,147,0.0,0.0,95,0.00,,,0.00,,2013-05-08 15:52:00,
2013-05-08 09:02:00,50.0,49.0,30.10,SSE,147,0.0,0.0,95,0.00,,,0.00,,2013-05-08 16:02:00,
2013-05-08 10:22:00,51.0,50.0,30.12,NE,37,0.0,0.0,96,0.00,,,0.00,,2013-05-08 17:22:00,
2013-05-08 10:32:00,51.0,50.0,30.12,NE,37,0.0,0.0,96,0.00,,,0.00,,2013-05-08 17:32:00,
2013-05-08 10:42:00,51.0,50.0,30.12,NE,37,0.0,0.0,96,0.00,,,0.00,,2013-05-08 17:42:00,
2013-05-08 10:52:00,51.0,50.0,30.12,NE,37,0.0,0.0,96,0.00,,,0.00,,2013-05-08 17:52:00,
2013-05-08 11:01:00,51.0,50.0,30.12,NE,37,0.0,0.0,96,0.00,,,0.00,,2013-05-08 18:01:00,
2013-05-08 12:22:00,56.0,53.0,30.14,NE,37,0.0,0.0,89,0.00,,,0.00,,2013-05-08 19:22:00,
2013-05-08 12:32:00,56.0,53.0,30.14,NE,37,0.0,0.0,89,0.00,,,0.00,,2013-05-08 19:32:00,
2013-05-08 12:42:00,56.0,53.0,30.14,NE,37,0.0,0.0,89,0.00,,,0.00,,2013-05-08 19:42:00,
2013-05-08 12:52:00,56.0,53.0,30.14,NE,37,0.0,0.0,89,0.00,,,0.00,,2013-05-08 19:52:00,
2013-05-08 13:01:00,56.0,53.0,30.14,NE,37,0.0,0.0,89,0.00,,,0.00,,2013-05-08 20:01:00,
2013-05-08 14:12:00,64.0,56.0,30.11,NE,37,0.0,0.0,75,0.00,,,0.00,,2013-05-08 21:12:00,
2013-05-08 16:12:00,65.0,55.0,30.09,NE,37,0.0,0.0,70,0.00,,,0.00,,2013-05-08 23:12:00,
2013-05-08 16:22:00,65.0,55.0,30.09,NE,37,0.0,0.0,70,0.00,,,0.00,,2013-05-08 23:22:00,
2013-05-08 16:32:00,65.0,55.0,30.09,NE,37,0.0,0.0,70,0.00,,,0.00,,2013-05-08 23:32:00,
2013-05-08 16:42:00,65.0,55.0,30.09,NE,37,0.0,0.0,70,0.00,,,0.00,,2013-05-08 23:42:00,
2013-05-08 16:52:00,65.0,55.0,30.09,NE,37,0.0,0.0,70,0.00,,,0.00,,2013-05-08 23:52:00,
2013-05-08 17:01:00,65.0,55.0,30.09,NE,37,0.0,0.0,70,0.00,,,0.00,,2013-05-09 00:01:00,
2013-05-08 18:22:00,60.0,53.0,30.09,ENE,78,0.0,0.0,79,0.00,,,0.00,,2013-05-09 01:22:00,
2013-05-08 18:32:00,60.0,53.0,30.09,ENE,78,0.0,0.0,79,0.00,,,0.00,,2013-05-09 01:32:00,
2013-05-08 18:42:00,60.0,53.0,30.09,ENE,78,0.0,0.0,79,0.00,,,0.00,,2013-05-09 01:42:00,
2013-05-08 18:52:00,60.0,53.0,30.09,ENE,78,0.0,0.0,79,0.00,,,0.00,,2013-05-09 01:52:00,
2013-05-08 19:01:00,60.0,53.0,30.09,ENE,78,0.0,0.0,79,0.00,,,0.00,,2013-05-09 02:01:00,
2013-05-08 20:21:00,57.0,52.0,30.09,ENE,77,0.0,0.0,84,0.00,,,0.00,,2013-05-09 03:21:00,
2013-05-08 20:33:00,57.0,52.0,30.09,ENE,77,0.0,0.0,84,0.00,,,0.00,,2013-05-09 03:33:00,
2013-05-08 20:43:00,57.0,52.0,30.09,ENE,77,0.0,0.0,84,0.00,,,0.00,,2013-05-09 03:43:00,
2013-05-08 20:53:00,57.0,52.0,30.09,ENE,77,0.0,0.0,84,0.00,,,0.00,,2013-05-09 03:53:00,
2013-05-08 21:03:00,57.0,52.0,30.09,ENE,77,0.0,0.0,84,0.00,,,0.00,,2013-05-09 04:03:00,
2013-05-08 22:22:00,53.0,50.0,30.12,ENE,77,0.0,0.0,88,0.00,,,0.00,,2013-05-09 05:22:00,
2013-05-08 22:32:00,53.0,50.0,30.12,ENE,77,0.0,0.0,88,0.00,,,0.00,,2013-05-09 05:32:00,
2013-05-08 22:42:00,53.0,50.0,30.12,ENE,77,0.0,0.0,88,0.00,,,0.00,,2013-05-09 05:42:00,
2013-05-08 22:52:00,53.0,50.0,30.12,ENE,77,0.0,0.0,88,0.00,,,0.00,,2013-05-09 05:52:00,
2013-05-08 23:01:00,53.0,50.0,30.12,ENE,77,0.0,0.0,88,0.00,,,0.00,,2013-05-09 06:01:00,